Terminal Aerodrome Forecast
Issued by NWS Nashville, TN

Home | Current Version | Previous Version | Text Only | Print | Product List | Glossary On
Versions: 1 2 3 4 5 6 7 8 9 10 11 12 13 14 15 16 17 18 19 20 21 22 23 24 25 26 27
000
FTUS44 KOHX 300900 AAA
TAFBNA
TAF AMD
KBNA 300913Z 3009/3106 33009G17KT P6SM OVC025
     FM301600 35010G18KT P6SM BKN040
     FM301900 34008KT P6SM SCT050
     FM310100 36005KT P6SM SCT250=

USA.gov is the U.S. government's official web portal to all federal, state and local government web resources and services.